Location: Betra
(48.4113°N, 8.6634°E)
Time: 16:56:28
(UTC+00:00)

Cosmos 1980 Rocket - Pass Details

Date: 23 May 2024
Orbit: 827 x 851 km, 71.0° (Epoch: 16 June)

Event Time Altitude Azimuth Distance (km) Brightness Sun altitude
Rises 01:05:06 0° 323° (NW) 3,427 5.7 -17.2°
Reaches altitude 10° 01:07:58 10° 310° (NW) 2,486 4.8 -17.0°
Maximum altitude 01:12:28 24° 258° (WSW) 1,677 3.4 -16.7°
Enters shadow 01:13:50 22° 236° (WSW) 1,767 3.4 -16.6°
